アトラス彗星

C/2020 F2 ( ATLAS )

English version
Home page
Updated on September 11, 2022

---------------------------------------------------------------------

・ プロフィール

発見日 2020年3月21日、22日
発見光度 19.3等、19.3等
発見者 Asteroid Terrestrial-Impact Last Alert System (ATLAS) search program, Pan-STARRS 1 telescope (Haleakala)

・ 写真集

・ 軌道要素

Epoch 2022 Aug. 9.0 TT = JDT 2459800.5
T 2022 July 15.62052 TT                                 Rudenko
q   8.8170858            (2000.0)            P               Q
z  -0.0005940      Peri.   48.35313     -0.89902575     -0.34784359
 +/-0.0000013      Node   250.27484     -0.43595865     +0.76805864
e   1.0052377      Incl.  163.58550     +0.04114307     +0.53767161
From 1128 observations 2019 May 27-2022 Aug. 13, mean residual 0".4.

・ 星図

・ 光度変化

        m1 = -6.5 + 5 logΔ + 20.0 log r

---------------------------------------------------------------------

軌道要素はM.P.E.C. 2022-R68に掲載されたものです。
星図はステラナビゲータ Ver.10 (アストロアーツ) で作成したものです。
光度グラフはComet for Windowsで作成したものです。

---------------------------------------------------------------------

Copyright(C) Seiichi Yoshida (comet@aerith.net). All rights reserved.